Wind_Speed
22 21 21 21 20 21 24 27 34 34 40 35 33 24 24 25 28 30 29 29 24 20 16 17 16 21 21 26 24 21 10 16 9 7 4 2 2 3 3 5 6 5 3 3 2 1 2 9 5 4 7 14 16 18
25 24 23 22 21 20 24 29 35 34 35 37 34 27 25 28 26 26 28 27 26 22 20 9 15 15 17 20 22 21 19 16 12 7 3 0 2 2 2 3 5 3 6 4 3 4 11 10 9 9 11 14 16 18
29 27 25 22 20 21 22 26 35 36 35 38 36 36 26 24 24 23 27 31 27 27 16 12 16 11 14 15 20 21 18 17 12 7 3 1 2 3 3 6 9 6 9 7 7 6 14 15 16 14 17 20 21 21
31 30 28 24 22 22 22 25 34 39 34 33 40 31 29 23 24 23 27 30 26 26 14 26 16 8 10 11 19 21 20 18 14 9 4 3 4 5 7 8 11 10 9 11 15 15 17 17 21 21 21 23 24 25
34 32 30 28 24 23 21 23 37 41 35 33 39 34 34 31 25 22 25 25 21 26 30 27 14 6 6 11 18 21 20 20 17 12 9 8 7 6 7 11 9 8 9 8 9 10 13 17 22 24 24 26 29 28
34 37 31 26 26 24 23 25 37 39 34 36 40 34 33 29 21 22 25 18 26 30 30 20 9 10 8 9 16 23 24 21 20 17 13 11 9 9 6 8 5 5 6 7 9 10 10 14 16 19 19 21 23 27
35 40 30 28 32 28 23 35 38 39 39 36 39 33 27 27 22 22 26 25 28 28 26 8 6 4 11 11 15 23 24 24 22 20 14 13 13 13 15 15 8 8 7 8 9 11 12 15 17 19 20 21 22 24
40 38 32 28 32 26 32 36 36 39 41 37 37 36 26 29 24 21 23 27 29 27 11 4 5 10 14 12 18 27 26 25 24 20 19 17 17 18 13 9 7 9 11 12 14 15 16 17 19 20 22 22 21 24
41 36 40 34 28 30 32 30 37 38 40 42 38 40 25 24 25 26 26 28 25 10 4 4 8 10 13 15 22 30 28 23 19 18 20 15 21 16 10 12 8 11 12 14 16 17 18 19 20 23 24 26 28 27
42 37 33 33 28 29 32 37 36 42 43 44 41 40 28 26 28 29 31 20 4 4 3 4 11 15 18 20 25 25 15 9 13 17 16 18 27 20 20 17 11 14 16 18 19 20 21 22 23 24 26 27 29 30
42 40 44 48 32 32 35 37 40 41 42 40 43 34 27 27 29 25 9 6 5 3 4 7 16 19 20 23 26 11 10 9 7 9 10 10 20 15 18 19 10 14 16 18 20 20 20 20 20 22 25 27 27 28
43 45 44 34 27 30 36 43 44 37 37 34 41 31 24 17 8 6 5 5 5 5 8 13 21 26 29 30 19 11 10 8 9 11 8 11 20 17 18 13 11 15 19 20 20 21 22 22 21 21 22 23 26 27
45 48 41 35 28 33 42 43 40 36 34 39 39 18 9 5 9 6 6 7 11 17 17 17 23 29 36 24 16 10 8 10 11 9 11 21 18 13 21 12 16 21 22 23 22 22 23 23 23 23 22 24 24 25
51 48 49 35 34 41 43 45 35 27 35 39 19 11 7 9 10 11 13 17 19 22 27 29 33 33 35 30 14 8 11 10 9 13 25 24 15 16 18 17 24 28 26 24 24 23 23 23 23 23 23 22 22 22
41 39 36 36 39 43 40 35 31 34 35 32 15 11 14 12 19 19 21 25 29 30 31 34 37 36 33 19 12 11 8 10 10 15 14 9 8 14 19 25 27 29 28 26 25 24 24 23 23 23 23 23 22 21
40 38 34 33 39 40 37 32 31 31 36 37 33 27 31 34 34 37 37 41 39 40 43 41 35 17 16 11 12 14 12 23 23 17 22 23 18 21 26 27 29 30 31 27 25 23 23 22 22 23 23 22 21 20
35 35 27 35 34 32 29 27 31 34 39 38 41 44 41 41 43 43 43 44 43 42 40 39 23 14 11 11 15 21 36 36 30 33 26 25 31 34 30 27 30 31 30 27 25 23 23 22 22 22 22 21 20 19
31 30 32 28 21 23 24 33 32 36 41 45 47 48 45 45 46 44 43 40 40 41 41 38 31 27 24 28 34 36 36 37 40 39 31 29 32 30 29 29 31 30 28 26 24 23 23 22 22 22 21 20 19 18
24 25 21 22 19 26 27 36 36 42 41 42 43 44 45 44 42 40 39 38 39 41 38 35 22 33 40 41 41 40 39 36 34 29 29 27 28 31 32 31 30 29 27 25 22 22 22 22 21 21 21 19 18 18
14 12 16 26 25 29 36 36 34 30 35 41 43 39 38 37 36 33 33 34 37 38 36 38 40 40 40 38 38 38 37 35 36 36 32 30 31 31 32 29 29 27 25 22 20 21 21 21 21 20 20 18 17 17
23 28 31 28 28 30 34 30 30 31 31 31 33 31 32 32 35 35 33 34 35 36 36 34 32 31 31 32 32 32 33 33 33 33 34 33 30 28 26 26 25 23 21 18 19 20 20 20 20 19 18 17 16 16
28 28 28 30 32 30 33 31 26 25 27 31 35 35 34 32 30 30 30 30 31 24 25 28 29 29 29 28 28 27 28 29 29 28 27 26 24 23 22 21 20 19 17 17 19 20 20 19 18 17 16 15 15 15
19 19 20 21 21 21 22 24 26 29 30 27 26 26 29 27 26 26 24 23 25 24 28 28 27 27 25 22 21 21 22 23 22 22 22 21 20 18 17 17 17 15 16 18 19 19 18 17 16 15 15 15 15 14
21 20 21 15 15 17 20 18 19 20 21 23 22 21 21 23 23 25 26 26 28 29 29 27 22 20 21 19 18 19 20 21 21 19 17 15 14 13 15 15 14 15 17 18 18 17 16 15 14 14 14 14 14 14
10 9 8 11 11 12 17 18 16 15 15 16 19 21 23 21 23 27 30 27 23 21 20 21 17 16 18 21 23 23 21 17 13 11 11 12 13 13 13 14 15 16 16 16 16 15 14 14 13 14 14 14 14 13
8 9 8 7 9 10 9 7 10 15 17 19 16 18 21 22 19 14 19 17 17 16 15 18 21 23 24 23 21 18 14 12 11 11 11 11 12 13 14 14 15 15 15 15 15 14 14 14 14 14 14 13 13 13
7 6 8 10 10 11 13 16 18 19 21 21 17 17 15 7 9 12 14 14 15 21 26 28 28 26 22 19 16 14 13 12 11 11 12 13 14 15 15 15 15 14 14 14 14 14 14 15 15 15 14 14 14 13
5 3 6 9 12 15 17 19 20 19 12 13 13 9 7 7 11 17 23 27 29 30 30 26 22 18 15 13 13 13 12 12 13 14 15 16 15 15 15 15 15 15 14 14 14 14 15 15 14 14 13 13 13 14
5 8 11 14 16 18 19 19 18 17 17 16 18 20 23 27 27 28 30 30 27 23 19 17 15 14 13 13 12 13 13 14 16 17 16 16 16 15 15 14 14 14 13 13 13 14 14 14 14 14 14 13 13 14
9 13 15 15 14 13 12 12 16 18 19 18 18 18 18 18 19 19 18 16 15 14 13 12 11 12 12 13 14 15 17 17 17 17 16 15 14 13 12 12 11 10 10 11 11 12 12 11 13 14 14 14 14 14
9 8 8 7 7 8 8 10 11 11 11 10 10 10 10 10 10 11 11 12 12 12 12 12 13 14 15 16 17 17 17 17 17 16 14 13 12 11 10 9 9 9 9 9 9 9 10 10 11 12 13 14 15 15
7 7 8 8 8 8 10 11 10 8 11 9 7 7 7 7 8 10 12 14 16 16 16 16 15 15 15 15 16 16 16 15 15 14 13 12 11 11 10 10 10 9 9 9 9 9 10 11 12 12 13 14 15 15
7 8 8 8 9 10 11 9 7 10 5 5 8 7 8 10 11 13 14 15 17 18 18 17 17 15 15 14 14 14 14 14 13 13 13 12 13 12 12 12 12 12 12 12 12 13 14 15 15 16 17 17 17 18
Wind_Direction
304 311 316 320 324 328 330 331 338 347 347 349 353 351 349 351 351 354 359 3 5 359 355 356 3 11 12 19 22 20 20 29 46 48 56 32 29 25 5 1 2 23 22 331 346 302 195 341 340 304 273 283 280 275
295 301 308 314 315 321 322 328 337 341 342 349 347 341 331 334 338 343 352 354 356 355 340 341 354 4 10 14 16 18 21 18 30 45 45 309 324 313 320 279 325 299 344 301 306 278 295 307 301 286 284 288 286 284
291 296 302 304 303 305 308 322 329 332 339 339 343 345 334 333 334 334 338 342 340 343 353 341 340 336 3 10 11 13 12 11 10 12 20 358 276 282 281 267 284 281 295 279 293 281 301 300 300 290 297 295 293 291
284 290 293 295 294 297 302 311 324 328 333 334 337 337 337 326 322 322 325 328 330 337 336 334 320 308 350 0 7 4 0 359 359 348 325 301 285 252 259 264 269 271 265 269 277 281 285 293 289 291 293 294 295 297
281 286 289 291 293 295 295 305 315 321 327 322 326 331 331 324 316 317 323 323 328 335 328 323 306 266 317 351 357 355 354 347 343 331 309 288 288 279 268 275 255 263 267 268 267 283 282 285 289 290 291 288 287 287
278 283 283 289 291 291 288 300 316 320 320 320 324 333 334 331 315 317 321 322 322 328 327 321 299 295 278 329 349 348 343 339 329 320 306 286 260 277 268 261 266 275 279 284 293 297 298 293 291 291 293 293 293 292
272 279 276 281 290 285 284 295 309 312 319 314 322 328 330 327 314 311 312 312 315 322 319 293 283 283 304 306 331 340 334 327 319 310 295 275 258 258 260 257 290 302 306 306 311 318 315 311 308 306 307 305 305 302
269 268 267 274 285 283 293 290 301 301 311 307 320 327 316 330 310 303 303 308 315 315 291 243 273 306 312 306 322 331 326 319 305 294 284 278 265 254 262 234 299 315 318 318 319 322 324 322 318 314 313 311 310 306
264 261 266 269 275 283 281 276 291 300 310 306 312 326 315 320 324 312 303 303 305 278 233 277 310 323 320 308 314 327 323 306 292 276 272 272 263 243 242 239 295 321 324 322 320 322 324 323 320 316 316 315 315 313
261 253 260 282 271 275 274 280 287 292 300 304 310 321 313 322 319 309 302 306 249 209 261 357 338 322 317 313 313 322 304 284 279 277 277 261 265 262 249 245 284 324 325 326 324 324 324 324 322 319 316 314 313 312
253 249 261 278 259 266 271 269 278 290 301 305 310 316 303 310 307 301 269 237 219 214 215 329 337 337 332 319 315 302 282 279 268 269 253 259 260 270 248 228 293 326 325 323 321 320 318 315 315 314 312 311 311 312
243 254 272 263 256 265 266 268 281 288 307 307 306 308 306 309 275 264 255 245 238 230 229 312 325 326 326 324 314 302 271 253 250 260 249 262 295 281 226 227 304 327 323 320 321 318 316 313 311 310 309 310 312 312
246 253 275 270 260 257 259 273 280 291 306 304 309 313 298 257 252 242 235 246 260 264 277 289 301 307 311 315 291 269 260 241 258 243 254 272 282 260 215 259 308 321 317 315 317 317 315 313 312 312 312 313 317 316
249 255 266 252 248 258 263 269 281 291 299 303 294 262 247 223 233 249 282 280 277 274 269 279 290 291 291 295 278 243 245 249 246 248 267 278 276 228 231 285 303 305 309 310 312 315 314 312 311 312 311 310 310 312
254 261 249 243 250 260 270 274 276 275 291 277 257 247 237 245 250 257 278 287 280 276 271 275 285 291 287 274 250 242 234 235 241 259 286 290 273 259 278 293 299 302 304 304 306 309 311 311 310 309 308 307 307 309
259 255 263 269 264 271 271 278 278 286 280 258 245 256 272 278 277 277 282 287 292 285 281 278 287 277 260 234 232 222 240 259 271 280 290 291 282 282 297 300 298 297 301 300 297 301 304 305 306 304 302 300 301 303
262 258 265 280 279 271 256 262 271 276 265 251 256 271 274 281 291 294 293 298 295 293 286 280 268 268 244 232 241 250 263 280 276 277 282 282 284 287 293 296 294 295 297 295 291 294 297 300 300 300 298 296 294 296
258 267 274 274 263 244 252 258 269 262 257 263 265 271 276 285 290 291 294 297 294 290 287 275 271 256 257 272 277 283 281 280 282 282 287 289 290 292 292 292 289 292 291 288 285 289 292 295 296 295 293 290 288 288
272 274 258 243 250 260 267 269 260 256 258 264 268 275 280 284 288 292 293 293 291 286 279 276 268 276 288 295 295 294 295 292 289 285 289 291 288 287 287 286 287 288 287 283 282 286 288 290 290 290 287 285 284 282
228 244 253 254 255 253 258 250 254 258 260 267 275 280 283 287 289 290 291 292 286 281 279 282 294 297 296 297 293 292 292 289 287 288 288 287 287 284 284 286 284 285 282 277 280 283 286 289 289 286 283 281 280 279
241 235 247 250 250 246 242 253 254 263 269 270 281 286 288 290 289 293 296 291 286 288 295 295 297 297 296 293 290 288 287 286 285 283 283 284 283 281 280 277 279 277 273 275 280 283 285 285 283 281 279 277 275 274
247 250 248 243 243 247 249 248 252 260 270 279 286 291 291 293 294 294 293 290 294 294 298 298 295 292 290 289 286 284 284 284 284 283 282 280 277 275 273 273 271 268 270 276 280 282 282 280 279 277 277 275 272 270
232 233 239 248 255 253 253 253 262 271 275 277 282 291 292 295 299 303 296 295 297 300 300 297 295 295 293 291 292 291 290 289 287 284 281 278 274 270 267 264 264 269 276 279 279 277 276 275 275 275 275 272 269 268
244 243 245 250 242 244 257 257 261 265 274 283 288 293 296 299 299 296 295 295 296 294 291 294 297 296 296 297 300 302 301 296 289 284 277 270 267 265 263 265 273 278 277 275 273 273 272 272 274 273 271 268 266 265
215 219 215 220 224 238 252 263 270 276 284 295 294 293 296 294 288 291 293 291 286 287 295 301 305 310 313 313 309 304 298 289 281 275 272 269 267 266 272 279 278 276 275 274 273 271 269 271 271 270 267 262 262 264
203 205 212 215 224 242 253 269 284 293 294 296 290 292 293 293 289 272 276 277 284 293 297 305 313 316 314 310 303 296 287 280 275 271 269 269 276 281 282 282 281 277 275 272 271 270 270 269 268 266 264 261 262 263
210 214 226 237 258 280 288 288 291 294 298 297 285 284 292 265 250 252 263 278 293 301 305 308 309 308 304 297 289 286 286 284 279 279 283 286 289 289 287 284 281 277 275 272 270 270 269 268 267 265 263 260 259 261
207 227 268 279 281 283 289 293 296 297 287 275 267 263 259 254 265 278 288 294 298 301 303 303 301 296 291 291 292 290 285 283 284 287 290 292 290 286 284 282 279 277 275 273 270 267 266 266 266 265 264 261 260 259
274 280 281 284 287 290 293 295 290 281 279 279 284 286 283 283 283 285 290 295 299 301 300 297 291 287 285 283 283 284 286 290 293 293 292 289 287 285 282 280 277 275 272 269 267 264 262 262 263 261 260 262 262 262
301 300 297 297 296 295 294 290 289 292 292 292 290 288 286 287 290 296 303 308 310 309 306 302 296 291 288 286 286 288 291 293 292 291 290 288 285 282 279 276 274 273 270 267 265 266 265 262 260 262 262 264 265 266
323 333 336 336 328 324 320 319 316 313 314 316 315 308 304 301 302 313 320 325 327 324 319 312 306 301 297 295 293 292 291 292 292 291 287 283 279 275 272 271 270 268 267 268 269 270 269 268 267 266 268 270 271 272
10 5 360 356 352 343 334 328 326 329 333 339 347 347 345 336 330 334 333 331 329 324 320 315 311 307 304 301 299 298 296 294 291 287 282 277 273 270 268 266 265 265 265 267 269 270 272 272 272 271 271 272 273 274
40 30 24 24 19 7 358 353 353 344 345 354 358 0 5 352 344 348 344 343 341 337 333 329 324 320 315 311 308 304 299 294 289 285 280 275 271 268 266 264 263 264 267 272 275 277 277 276 277 278 279 279 280 280
Height
3122 3120 3117 3114 3112 3109 3105 3100 3095 3091 3086 3081 3075 3070 3066 3061 3056 3052 3047 3042 3038 3034 3032 3028 3024 3020 3016 3013 3010 3008 3004 3000 2997 2995 2995 2995 2996 2994 2994 2993 2992 2992 2992 2993 2990 2988 2990 2990 2991 2995 2993 2990 2990 2990
3117 3115 3112 3110 3108 3105 3102 3097 3093 3088 3085 3080 3074 3069 3064 3059 3055 3051 3047 3042 3037 3033 3031 3027 3023 3021 3018 3015 3012 3007 3006 3002 2999 2997 2997 2995 2995 2994 2994 2995 2992 2993 2992 2990 2991 2990 2988 2988 2989 2987 2987 2986 2985 2985
3112 3110 3108 3105 3103 3100 3097 3094 3090 3086 3081 3077 3072 3067 3062 3057 3053 3049 3044 3040 3036 3031 3027 3026 3024 3021 3017 3014 3011 3009 3005 3002 3000 2998 2997 2995 2994 2994 2994 2992 2989 2988 2988 2988 2988 2987 2984 2984 2983 2982 2981 2980 2978 2978
3105 3103 3101 3099 3096 3095 3093 3090 3086 3082 3077 3073 3068 3063 3058 3054 3049 3046 3041 3036 3033 3029 3025 3024 3020 3018 3016 3012 3009 3007 3004 3001 2999 2997 2995 2994 2993 2992 2990 2989 2987 2987 2985 2984 2984 2983 2981 2980 2978 2977 2977 2975 2973 2972
3097 3096 3095 3093 3091 3089 3087 3083 3081 3078 3073 3068 3064 3059 3054 3049 3045 3041 3037 3033 3029 3029 3023 3017 3015 3014 3014 3011 3008 3005 3002 2999 2997 2995 2993 2991 2989 2989 2987 2985 2983 2982 2981 2981 2980 2980 2978 2976 2973 2971 2971 2969 2967 2966
3088 3089 3088 3087 3085 3083 3081 3078 3075 3073 3068 3064 3060 3054 3049 3043 3038 3035 3031 3029 3025 3021 3017 3013 3011 3011 3011 3010 3007 3003 3000 2997 2994 2992 2989 2987 2986 2986 2983 2979 2979 2978 2977 2976 2976 2974 2973 2971 2968 2966 2964 2962 2960 2956
3079 3081 3080 3079 3079 3076 3075 3071 3070 3067 3063 3058 3054 3050 3044 3040 3035 3031 3027 3023 3020 3017 3012 3009 3006 3007 3007 3006 3004 3002 2998 2994 2991 2987 2984 2983 2982 2982 2977 2974 2974 2973 2973 2971 2969 2968 2967 2964 2962 2958 2955 2953 2951 2948
3070 3070 3070 3069 3071 3069 3068 3063 3062 3059 3056 3052 3048 3044 3039 3034 3029 3025 3020 3017 3013 3010 3008 3007 3006 3005 3004 3002 3001 2997 2994 2990 2985 2982 2979 2978 2977 2976 2970 2970 2970 2969 2968 2966 2964 2963 2961 2958 2955 2951 2947 2943 2943 2940
3060 3060 3059 3058 3062 3061 3059 3057 3055 3052 3048 3044 3040 3037 3033 3029 3022 3018 3014 3010 3007 3008 3005 3005 3006 3005 3002 3000 2998 2994 2989 2984 2981 2977 2974 2974 2969 2965 2964 2965 2965 2964 2963 2961 2958 2955 2952 2950 2948 2944 2941 2937 2933 2930
3049 3048 3048 3049 3052 3052 3052 3049 3046 3044 3042 3037 3034 3029 3025 3023 3017 3012 3005 3003 3000 3002 3001 3003 3003 3003 3002 2998 2994 2991 2984 2981 2975 2973 2969 2963 2958 2959 2958 2958 2959 2958 2957 2955 2953 2949 2946 2943 2940 2937 2934 2930 2926 2922
3037 3035 3037 3041 3042 3042 3042 3038 3036 3035 3035 3031 3025 3023 3019 3014 3009 3003 3001 3000 2999 2999 3000 3000 2998 2996 2996 2994 2991 2988 2982 2978 2972 2969 2966 2956 2950 2953 2952 2953 2954 2952 2951 2950 2948 2944 2941 2938 2934 2931 2928 2924 2920 2916
3023 3024 3027 3027 3031 3033 3030 3029 3029 3028 3027 3023 3019 3014 3013 3008 3003 3001 2998 2997 2996 2996 2995 2994 2993 2991 2988 2986 2983 2981 2978 2973 2967 2963 2960 2948 2946 2946 2947 2949 2948 2947 2946 2944 2942 2939 2936 2932 2929 2924 2921 2918 2914 2910
3011 3012 3013 3016 3021 3021 3019 3020 3020 3021 3020 3015 3012 3008 3008 3005 3001 2997 2996 2995 2994 2993 2991 2990 2989 2987 2982 2981 2978 2976 2971 2965 2961 2956 2948 2940 2940 2940 2942 2944 2943 2941 2940 2938 2935 2932 2929 2924 2921 2917 2913 2908 2905 2902
2995 3001 3005 3006 3008 3007 3009 3010 3011 3013 3012 3008 3005 3002 3001 2996 2992 2991 2992 2991 2989 2986 2985 2982 2980 2979 2975 2973 2970 2966 2962 2959 2952 2945 2938 2937 2936 2937 2938 2938 2937 2936 2933 2931 2928 2925 2921 2918 2913 2908 2905 2902 2900 2897
2985 2988 2988 2992 2996 2996 3000 2999 3001 3004 3004 3000 2998 2992 2986 2987 2986 2986 2985 2985 2984 2981 2977 2974 2972 2971 2968 2966 2960 2957 2954 2946 2939 2934 2934 2934 2934 2934 2933 2932 2930 2928 2925 2923 2920 2917 2913 2909 2906 2902 2899 2896 2893 2891
2973 2973 2980 2984 2984 2985 2989 2992 2991 2992 2989 2988 2982 2980 2980 2979 2979 2979 2977 2975 2973 2971 2968 2966 2961 2958 2956 2954 2949 2946 2941 2934 2932 2932 2931 2930 2928 2927 2925 2923 2921 2919 2917 2915 2912 2909 2906 2902 2899 2896 2893 2891 2888 2886
2961 2962 2974 2975 2975 2978 2982 2983 2983 2979 2975 2970 2965 2967 2968 2968 2968 2969 2966 2963 2961 2959 2956 2954 2951 2948 2943 2940 2937 2933 2928 2928 2926 2924 2922 2922 2920 2918 2916 2915 2913 2910 2908 2906 2904 2901 2898 2894 2892 2889 2887 2885 2883 2881
2951 2959 2962 2964 2967 2970 2972 2971 2970 2965 2958 2958 2959 2959 2960 2960 2959 2957 2954 2953 2951 2947 2945 2942 2940 2935 2933 2929 2925 2924 2921 2919 2917 2916 2914 2912 2910 2908 2907 2905 2903 2901 2899 2897 2895 2893 2891 2888 2885 2883 2882 2880 2878 2876
2943 2947 2952 2957 2960 2961 2959 2956 2956 2951 2950 2948 2948 2950 2951 2949 2947 2946 2944 2942 2939 2936 2934 2929 2928 2923 2920 2918 2916 2914 2912 2910 2908 2906 2905 2903 2901 2899 2897 2895 2893 2891 2890 2888 2887 2886 2884 2881 2879 2877 2876 2874 2873 2871
2938 2941 2945 2949 2950 2951 2949 2944 2942 2941 2938 2940 2941 2941 2940 2939 2938 2935 2933 2931 2928 2924 2922 2919 2917 2915 2911 2909 2906 2904 2901 2899 2897 2895 2894 2893 2890 2888 2886 2886 2884 2883 2881 2880 2879 2878 2876 2874 2872 2871 2870 2869 2868 2867
2931 2934 2937 2938 2939 2940 2937 2933 2931 2931 2930 2930 2931 2931 2930 2929 2928 2925 2922 2919 2916 2914 2911 2909 2906 2904 2901 2898 2894 2892 2889 2886 2884 2883 2881 2880 2880 2878 2877 2876 2875 2874 2874 2873 2873 2871 2869 2867 2866 2865 2864 2863 2863 2862
2924 2925 2927 2927 2928 2928 2926 2924 2924 2923 2923 2921 2923 2922 2919 2918 2917 2916 2912 2908 2906 2905 2902 2899 2896 2893 2890 2886 2883 2880 2878 2876 2874 2872 2871 2871 2870 2869 2869 2868 2868 2867 2867 2866 2866 2865 2863 2861 2860 2859 2859 2858 2858 2858
2916 2917 2918 2920 2921 2918 2917 2917 2918 2916 2916 2915 2914 2912 2910 2909 2908 2907 2903 2899 2898 2896 2893 2889 2886 2884 2880 2877 2874 2872 2869 2867 2865 2864 2863 2862 2861 2861 2861 2861 2861 2861 2860 2860 2859 2858 2857 2856 2855 2854 2854 2854 2854 2854
2907 2910 2911 2912 2910 2910 2909 2909 2910 2910 2909 2908 2907 2905 2903 2901 2899 2898 2895 2892 2890 2887 2884 2881 2878 2876 2873 2871 2868 2866 2864 2862 2860 2858 2856 2856 2856 2856 2856 2856 2856 2855 2854 2854 2853 2852 2851 2850 2849 2849 2850 2850 2850 2850
2903 2905 2906 2904 2905 2904 2903 2903 2904 2904 2903 2903 2901 2900 2896 2894 2892 2890 2887 2884 2881 2879 2877 2875 2873 2870 2868 2865 2863 2861 2858 2856 2854 2853 2852 2852 2852 2851 2851 2851 2850 2849 2849 2848 2847 2846 2845 2845 2845 2845 2845 2846 2845 2845
2898 2899 2901 2899 2899 2900 2899 2899 2899 2899 2898 2897 2895 2893 2890 2887 2885 2883 2879 2877 2876 2874 2872 2870 2867 2865 2862 2860 2858 2855 2853 2852 2850 2849 2849 2848 2847 2847 2846 2845 2844 2844 2843 2842 2841 2841 2840 2841 2841 2841 2841 2841 2841 2841
2896 2895 2896 2896 2895 2896 2895 2895 2894 2894 2892 2889 2887 2886 2884 2881 2878 2876 2874 2872 2870 2868 2866 2864 2861 2858 2856 2854 2852 2850 2849 2847 2846 2846 2845 2844 2843 2841 2841 2840 2839 2838 2837 2837 2836 2836 2836 2836 2837 2837 2837 2837 2837 2838
2893 2893 2893 2894 2894 2892 2891 2890 2888 2886 2884 2883 2882 2881 2879 2876 2874 2872 2869 2867 2864 2861 2859 2856 2854 2852 2850 2848 2847 2846 2845 2843 2842 2841 2840 2839 2838 2836 2835 2834 2833 2832 2832 2831 2831 2831 2831 2832 2832 2832 2832 2833 2833 2833
2889 2889 2891 2890 2888 2887 2885 2884 2882 2881 2880 2878 2877 2875 2873 2871 2868 2865 2863 2860 2857 2854 2852 2850 2848 2846 2845 2844 2843 2842 2840 2839 2838 2836 2835 2834 2832 2831 2830 2829 2828 2827 2827 2827 2827 2827 2827 2827 2828 2828 2828 2828 2828 2828
2886 2886 2885 2884 2883 2881 2880 2879 2877 2875 2873 2872 2870 2868 2866 2863 2861 2859 2856 2854 2852 2850 2847 2845 2844 2842 2841 2840 2839 2837 2836 2834 2832 2831 2830 2828 2827 2826 2825 2824 2823 2823 2823 2823 2822 2823 2823 2823 2823 2823 2823 2823 2824 2824
2882 2881 2880 2879 2878 2877 2875 2874 2872 2870 2869 2867 2865 2864 2862 2860 2858 2856 2854 2852 2850 2847 2845 2843 2841 2839 2837 2836 2834 2832 2831 2829 2827 2826 2824 2823 2822 2821 2821 2820 2820 2820 2819 2819 2819 2819 2819 2819 2819 2819 2819 2819 2819 2819
2880 2880 2879 2877 2877 2875 2874 2871 2870 2868 2867 2865 2864 2862 2860 2859 2858 2856 2854 2851 2848 2845 2842 2840 2837 2835 2833 2831 2829 2827 2825 2824 2822 2821 2820 2819 2818 2818 2817 2817 2817 2817 2816 2816 2816 2815 2815 2815 2815 2815 2815 2814 2814 2814
2881 2880 2878 2877 2876 2874 2872 2870 2869 2867 2866 2865 2864 2862 2861 2859 2857 2855 2852 2849 2846 2843 2840 2837 2834 2831 2829 2827 2825 2823 2821 2819 2818 2816 2815 2815 2814 2814 2814 2813 2813 2813 2812 2812 2812 2811 2811 2810 2810 2810 2809 2809 2808 2808